owner,sensor,date,latitude,longitude,vertical_datum,sea_water_temperature,qcFlag 
ENP,ioos.station.NOAA.NDBC:DKKF1:1,2015-09-01T00:00:00Z,25.1800,-80.4900,1.0,30.34,2 
ENP,ioos.station.NOAA.NDBC:DKKF1:1,2015-09-01T01:00:00Z,25.1800,-80.4900,1.0,30.32,2 
ENP,ioos.station.NOAA.NDBC:DKKF1:1,2015-09-01T02:00:00Z,25.1800,-80.4900,1.0,30.44,2 
ENP,ioos.station.NOAA.NDBC:DKKF1:1,2015-09-01T03:00:00Z,25.1800,-80.4900,1.0,30.5,11111222 
ENP,ioos.station.NOAA.NDBC:DKKF1:1,2015-09-01T04:00:00Z,25.1800,-80.4900,1.0,30.47,2 
ENP,ioos.station.NOAA.NDBC:DKKF1:1,2015-09-01T05:00:00Z,25.1800,-80.4900,1.0,30.5,11111222 
ENP,ioos.station.NOAA.NDBC:DKKF1:1,2015-09-01T06:00:00Z,25.1800,-80.4900,1.0,30.4,11111222 
ENP,ioos.station.NOAA.NDBC:DKKF1:1,2015-09-01T07:00:00Z,25.1800,-80.4900,1.0,30.34,2 
ENP,ioos.station.NOAA.NDBC:DKKF1:1,2015-09-01T08:00:00Z,25.1800,-80.4900,1.0,30.25,2 
ENP,ioos.station.NOAA.NDBC:DKKF1:1,2015-09-01T09:00:00Z,25.1800,-80.4900,1.0,30.21,2 
ENP,ioos.station.NOAA.NDBC:DKKF1:1,2015-09-01T10:00:00Z,25.1800,-80.4900,1.0,30.2,11111222 
ENP,ioos.station.NOAA.NDBC:DKKF1:1,2015-09-01T11:00:00Z,25.1800,-80.4900,1.0,29.8,2 
ENP,ioos.station.NOAA.NDBC:DKKF1:1,2015-09-01T12:00:00Z,25.1800,-80.4900,1.0,29.58,2 
ENP,ioos.station.NOAA.NDBC:DKKF1:1,2015-09-01T14:00:00Z,25.1800,-80.4900,1.0,29.57,2 
ENP,ioos.station.NOAA.NDBC:DKKF1:1,2015-09-01T15:00:00Z,25.1800,-80.4900,1.0,29.71,2 
ENP,ioos.station.NOAA.NDBC:DKKF1:1,2015-09-01T16:00:00Z,25.1800,-80.4900,1.0,30.0,11111222 
ENP,ioos.station.NOAA.NDBC:DKKF1:1,2015-09-01T17:00:00Z,25.1800,-80.4900,1.0,30.21,2 
ENP,ioos.station.NOAA.NDBC:DKKF1:1,2015-09-01T18:00:00Z,25.1800,-80.4900,1.0,30.45,2 
ENP,ioos.station.NOAA.NDBC:DKKF1:1,2015-09-01T19:00:00Z,25.1800,-80.4900,1.0,30.76,2 
ENP,ioos.station.NOAA.NDBC:DKKF1:1,2015-09-01T20:00:00Z,25.1800,-80.4900,1.0,30.86,2 
ENP,ioos.station.NOAA.NDBC:DKKF1:1,2015-09-01T21:00:00Z,25.1800,-80.4900,1.0,31.01,2 
ENP,ioos.station.NOAA.NDBC:DKKF1:1,2015-09-01T23:00:00Z,25.1800,-80.4900,1.0,31.12,2 
ENP,ioos.station.NOAA.NDBC:DKKF1:1,2015-09-02T00:00:00Z,25.1800,-80.4900,1.0,31.12,2 
ENP,ioos.station.NOAA.NDBC:DKKF1:1,2015-09-02T01:00:00Z,25.1800,-80.4900,1.0,31.18,2 
ENP,ioos.station.NOAA.NDBC:DKKF1:1,2015-09-02T02:00:00Z,25.1800,-80.4900,1.0,31.22,2 
ENP,ioos.station.NOAA.NDBC:DKKF1:1,2015-09-02T04:00:00Z,25.1800,-80.4900,1.0,31.24,2 
ENP,ioos.station.NOAA.NDBC:DKKF1:1,2015-09-02T06:00:00Z,25.1800,-80.4900,1.0,31.03,2 
ENP,ioos.station.NOAA.NDBC:DKKF1:1,2015-09-02T07:00:00Z,25.1800,-80.4900,1.0,30.8,11111222 
ENP,ioos.station.NOAA.NDBC:DKKF1:1,2015-09-02T08:00:00Z,25.1800,-80.4900,1.0,30.68,2 
ENP,ioos.station.NOAA.NDBC:DKKF1:1,2015-09-02T09:00:00Z,25.1800,-80.4900,1.0,30.6,11111222 
ENP,ioos.station.NOAA.NDBC:DKKF1:1,2015-09-02T10:00:00Z,25.1800,-80.4900,1.0,30.53,2 
ENP,ioos.station.NOAA.NDBC:DKKF1:1,2015-09-02T11:00:00Z,25.1800,-80.4900,1.0,30.45,2 
ENP,ioos.station.NOAA.NDBC:DKKF1:1,2015-09-02T12:00:00Z,25.1800,-80.4900,1.0,30.38,2 
ENP,ioos.station.NOAA.NDBC:DKKF1:1,2015-09-02T13:00:00Z,25.1800,-80.4900,1.0,30.27,2 
ENP,ioos.station.NOAA.NDBC:DKKF1:1,2015-09-02T14:00:00Z,25.1800,-80.4900,1.0,30.28,2 
ENP,ioos.station.NOAA.NDBC:DKKF1:1,2015-09-02T15:00:00Z,25.1800,-80.4900,1.0,30.37,2 
ENP,ioos.station.NOAA.NDBC:DKKF1:1,2015-09-02T16:00:00Z,25.1800,-80.4900,1.0,30.64,2 
ENP,ioos.station.NOAA.NDBC:DKKF1:1,2015-09-02T17:00:00Z,25.1800,-80.4900,1.0,30.93,2 
ENP,ioos.station.NOAA.NDBC:DKKF1:1,2015-09-02T18:00:00Z,25.1800,-80.4900,1.0,31.46,2 
ENP,ioos.station.NOAA.NDBC:DKKF1:1,2015-09-02T19:00:00Z,25.1800,-80.4900,1.0,31.89,2 
ENP,ioos.station.NOAA.NDBC:DKKF1:1,2015-09-02T20:00:00Z,25.1800,-80.4900,1.0,32.07,2 
ENP,ioos.station.NOAA.NDBC:DKKF1:1,2015-09-02T21:00:00Z,25.1800,-80.4900,1.0,32.15,2 
ENP,ioos.station.NOAA.NDBC:DKKF1:1,2015-09-02T22:00:00Z,25.1800,-80.4900,1.0,32.1,11111222 
ENP,ioos.station.NOAA.NDBC:DKKF1:1,2015-09-02T23:00:00Z,25.1800,-80.4900,1.0,32.16,2 
ENP,ioos.station.NOAA.NDBC:DKKF1:1,2015-09-03T00:00:00Z,25.1800,-80.4900,1.0,32.12,2 
ENP,ioos.station.NOAA.NDBC:DKKF1:1,2015-09-03T01:00:00Z,25.1800,-80.4900,1.0,32.06,2 
ENP,ioos.station.NOAA.NDBC:DKKF1:1,2015-09-03T02:00:00Z,25.1800,-80.4900,1.0,32.01,2 
ENP,ioos.station.NOAA.NDBC:DKKF1:1,2015-09-03T03:00:00Z,25.1800,-80.4900,1.0,31.9,11111222 
ENP,ioos.station.NOAA.NDBC:DKKF1:1,2015-09-03T04:00:00Z,25.1800,-80.4900,1.0,31.8,2 
ENP,ioos.station.NOAA.NDBC:DKKF1:1,2015-09-03T06:00:00Z,25.1800,-80.4900,1.0,31.6,11111222 
ENP,ioos.station.NOAA.NDBC:DKKF1:1,2015-09-03T07:00:00Z,25.1800,-80.4900,1.0,31.54,2 
ENP,ioos.station.NOAA.NDBC:DKKF1:1,2015-09-03T08:00:00Z,25.1800,-80.4900,1.0,31.4,11111222 
ENP,ioos.station.NOAA.NDBC:DKKF1:1,2015-09-03T09:00:00Z,25.1800,-80.4900,1.0,31.28,2 
ENP,ioos.station.NOAA.NDBC:DKKF1:1,2015-09-03T10:00:00Z,25.1800,-80.4900,1.0,31.16,2 
ENP,ioos.station.NOAA.NDBC:DKKF1:1,2015-09-03T11:00:00Z,25.1800,-80.4900,1.0,31.1,11111222 
ENP,ioos.station.NOAA.NDBC:DKKF1:1,2015-09-03T12:00:00Z,25.1800,-80.4900,1.0,31.01,2 
ENP,ioos.station.NOAA.NDBC:DKKF1:1,2015-09-03T13:00:00Z,25.1800,-80.4900,1.0,30.98,2 
ENP,ioos.station.NOAA.NDBC:DKKF1:1,2015-09-03T14:00:00Z,25.1800,-80.4900,1.0,31.0,11111222 
ENP,ioos.station.NOAA.NDBC:DKKF1:1,2015-09-03T15:00:00Z,25.1800,-80.4900,1.0,31.06,2 
ENP,ioos.station.NOAA.NDBC:DKKF1:1,2015-09-03T16:00:00Z,25.1800,-80.4900,1.0,31.23,2 
ENP,ioos.station.NOAA.NDBC:DKKF1:1,2015-09-03T17:00:00Z,25.1800,-80.4900,1.0,31.51,2 
ENP,ioos.station.NOAA.NDBC:DKKF1:1,2015-09-03T18:00:00Z,25.1800,-80.4900,1.0,31.96,2 
ENP,ioos.station.NOAA.NDBC:DKKF1:1,2015-09-03T19:00:00Z,25.1800,-80.4900,1.0,32.26,2 
ENP,ioos.station.NOAA.NDBC:DKKF1:1,2015-09-03T20:00:00Z,25.1800,-80.4900,1.0,32.76,2 
ENP,ioos.station.NOAA.NDBC:DKKF1:1,2015-09-03T21:00:00Z,25.1800,-80.4900,1.0,33.0,11111222 
ENP,ioos.station.NOAA.NDBC:DKKF1:1,2015-09-03T22:00:00Z,25.1800,-80.4900,1.0,32.88,2 
ENP,ioos.station.NOAA.NDBC:DKKF1:1,2015-09-03T23:00:00Z,25.1800,-80.4900,1.0,32.77,2 
ENP,ioos.station.NOAA.NDBC:DKKF1:1,2015-09-04T00:00:00Z,25.1800,-80.4900,1.0,32.71,2 
ENP,ioos.station.NOAA.NDBC:DKKF1:1,2015-09-04T04:00:00Z,25.1800,-80.4900,1.0,32.38,2 
ENP,ioos.station.NOAA.NDBC:DKKF1:1,2015-09-04T06:00:00Z,25.1800,-80.4900,1.0,32.08,2 
ENP,ioos.station.NOAA.NDBC:DKKF1:1,2015-09-04T07:00:00Z,25.1800,-80.4900,1.0,31.85,2 
ENP,ioos.station.NOAA.NDBC:DKKF1:1,2015-09-04T08:00:00Z,25.1800,-80.4900,1.0,31.8,2 
ENP,ioos.station.NOAA.NDBC:DKKF1:1,2015-09-04T09:00:00Z,25.1800,-80.4900,1.0,31.8,11111222 
ENP,ioos.station.NOAA.NDBC:DKKF1:1,2015-09-04T10:00:00Z,25.1800,-80.4900,1.0,31.8,2 
ENP,ioos.station.NOAA.NDBC:DKKF1:1,2015-09-04T11:00:00Z,25.1800,-80.4900,1.0,31.7,2 
ENP,ioos.station.NOAA.NDBC:DKKF1:1,2015-09-04T12:00:00Z,25.1800,-80.4900,1.0,31.6,2 
ENP,ioos.station.NOAA.NDBC:DKKF1:1,2015-09-04T13:00:00Z,25.1800,-80.4900,1.0,31.52,2 
ENP,ioos.station.NOAA.NDBC:DKKF1:1,2015-09-04T15:00:00Z,25.1800,-80.4900,1.0,31.56,2 
ENP,ioos.station.NOAA.NDBC:DKKF1:1,2015-09-04T16:00:00Z,25.1800,-80.4900,1.0,31.71,2 
ENP,ioos.station.NOAA.NDBC:DKKF1:1,2015-09-04T17:00:00Z,25.1800,-80.4900,1.0,32.0,11111222 
ENP,ioos.station.NOAA.NDBC:DKKF1:1,2015-09-04T18:00:00Z,25.1800,-80.4900,1.0,32.27,2 
ENP,ioos.station.NOAA.NDBC:DKKF1:1,2015-09-04T19:00:00Z,25.1800,-80.4900,1.0,32.8,11111222 
ENP,ioos.station.NOAA.NDBC:DKKF1:1,2015-09-04T20:00:00Z,25.1800,-80.4900,1.0,33.14,2 
ENP,ioos.station.NOAA.NDBC:DKKF1:1,2015-09-04T22:00:00Z,25.1800,-80.4900,1.0,32.89,2 
ENP,ioos.station.NOAA.NDBC:DKKF1:1,2015-09-04T23:00:00Z,25.1800,-80.4900,1.0,32.76,2 
ENP,ioos.station.NOAA.NDBC:DKKF1:1,2015-09-05T00:00:00Z,25.1800,-80.4900,1.0,32.69,2 
ENP,ioos.station.NOAA.NDBC:DKKF1:1,2015-09-05T01:00:00Z,25.1800,-80.4900,1.0,32.63,2 
ENP,ioos.station.NOAA.NDBC:DKKF1:1,2015-09-05T02:00:00Z,25.1800,-80.4900,1.0,32.55,2 
ENP,ioos.station.NOAA.NDBC:DKKF1:1,2015-09-05T04:00:00Z,25.1800,-80.4900,1.0,32.22,2 
ENP,ioos.station.NOAA.NDBC:DKKF1:1,2015-09-05T05:00:00Z,25.1800,-80.4900,1.0,32.1,11111222 
ENP,ioos.station.NOAA.NDBC:DKKF1:1,2015-09-05T06:00:00Z,25.1800,-80.4900,1.0,32.0,11111222 
ENP,ioos.station.NOAA.NDBC:DKKF1:1,2015-09-05T07:00:00Z,25.1800,-80.4900,1.0,31.93,2 
ENP,ioos.station.NOAA.NDBC:DKKF1:1,2015-09-05T08:00:00Z,25.1800,-80.4900,1.0,31.79,2 
ENP,ioos.station.NOAA.NDBC:DKKF1:1,2015-09-05T09:00:00Z,25.1800,-80.4900,1.0,31.9,11111222 
ENP,ioos.station.NOAA.NDBC:DKKF1:1,2015-09-05T10:00:00Z,25.1800,-80.4900,1.0,31.83,2 
ENP,ioos.station.NOAA.NDBC:DKKF1:1,2015-09-05T11:00:00Z,25.1800,-80.4900,1.0,31.71,2 
ENP,ioos.station.NOAA.NDBC:DKKF1:1,2015-09-05T12:00:00Z,25.1800,-80.4900,1.0,31.6,2 
ENP,ioos.station.NOAA.NDBC:DKKF1:1,2015-09-05T13:00:00Z,25.1800,-80.4900,1.0,31.37,2 
ENP,ioos.station.NOAA.NDBC:DKKF1:1,2015-09-05T14:00:00Z,25.1800,-80.4900,1.0,31.41,2 
ENP,ioos.station.NOAA.NDBC:DKKF1:1,2015-09-05T15:00:00Z,25.1800,-80.4900,1.0,31.6,11111222 
ENP,ioos.station.NOAA.NDBC:DKKF1:1,2015-09-05T16:00:00Z,25.1800,-80.4900,1.0,31.76,2 
ENP,ioos.station.NOAA.NDBC:DKKF1:1,2015-09-05T17:00:00Z,25.1800,-80.4900,1.0,31.98,2 
ENP,ioos.station.NOAA.NDBC:DKKF1:1,2015-09-05T18:00:00Z,25.1800,-80.4900,1.0,32.37,2 
ENP,ioos.station.NOAA.NDBC:DKKF1:1,2015-09-05T19:00:00Z,25.1800,-80.4900,1.0,32.8,11111222 
ENP,ioos.station.NOAA.NDBC:DKKF1:1,2015-09-05T20:00:00Z,25.1800,-80.4900,1.0,33.06,2 
ENP,ioos.station.NOAA.NDBC:DKKF1:1,2015-09-05T21:00:00Z,25.1800,-80.4900,1.0,32.91,2 
ENP,ioos.station.NOAA.NDBC:DKKF1:1,2015-09-05T22:00:00Z,25.1800,-80.4900,1.0,32.87,2 
ENP,ioos.station.NOAA.NDBC:DKKF1:1,2015-09-05T23:00:00Z,25.1800,-80.4900,1.0,32.9,11111222 
ENP,ioos.station.NOAA.NDBC:DKKF1:1,2015-09-06T00:00:00Z,25.1800,-80.4900,1.0,32.73,2 
ENP,ioos.station.NOAA.NDBC:DKKF1:1,2015-09-06T01:00:00Z,25.1800,-80.4900,1.0,32.57,2 
ENP,ioos.station.NOAA.NDBC:DKKF1:1,2015-09-06T02:00:00Z,25.1800,-80.4900,1.0,32.43,2 
ENP,ioos.station.NOAA.NDBC:DKKF1:1,2015-09-06T03:00:00Z,25.1800,-80.4900,1.0,32.28,2 
ENP,ioos.station.NOAA.NDBC:DKKF1:1,2015-09-06T04:00:00Z,25.1800,-80.4900,1.0,32.1,2 
ENP,ioos.station.NOAA.NDBC:DKKF1:1,2015-09-06T06:00:00Z,25.1800,-80.4900,1.0,31.9,11111222 
ENP,ioos.station.NOAA.NDBC:DKKF1:1,2015-09-06T07:00:00Z,25.1800,-80.4900,1.0,31.77,2 
ENP,ioos.station.NOAA.NDBC:DKKF1:1,2015-09-06T09:00:00Z,25.1800,-80.4900,1.0,31.62,2 
ENP,ioos.station.NOAA.NDBC:DKKF1:1,2015-09-06T10:00:00Z,25.1800,-80.4900,1.0,31.3,11111222 
ENP,ioos.station.NOAA.NDBC:DKKF1:1,2015-09-06T11:00:00Z,25.1800,-80.4900,1.0,31.2,2 
ENP,ioos.station.NOAA.NDBC:DKKF1:1,2015-09-06T12:00:00Z,25.1800,-80.4900,1.0,31.08,2 
ENP,ioos.station.NOAA.NDBC:DKKF1:1,2015-09-06T13:00:00Z,25.1800,-80.4900,1.0,31.06,2 
ENP,ioos.station.NOAA.NDBC:DKKF1:1,2015-09-06T15:00:00Z,25.1800,-80.4900,1.0,31.25,2 
ENP,ioos.station.NOAA.NDBC:DKKF1:1,2015-09-06T16:00:00Z,25.1800,-80.4900,1.0,31.4,11111222 
ENP,ioos.station.NOAA.NDBC:DKKF1:1,2015-09-06T17:00:00Z,25.1800,-80.4900,1.0,31.77,2 
ENP,ioos.station.NOAA.NDBC:DKKF1:1,2015-09-06T18:00:00Z,25.1800,-80.4900,1.0,32.19,2 
ENP,ioos.station.NOAA.NDBC:DKKF1:1,2015-09-06T19:00:00Z,25.1800,-80.4900,1.0,32.5,2 
ENP,ioos.station.NOAA.NDBC:DKKF1:1,2015-09-06T20:00:00Z,25.1800,-80.4900,1.0,32.79,2 
ENP,ioos.station.NOAA.NDBC:DKKF1:1,2015-09-06T22:00:00Z,25.1800,-80.4900,1.0,32.98,2 
ENP,ioos.station.NOAA.NDBC:DKKF1:1,2015-09-06T23:00:00Z,25.1800,-80.4900,1.0,32.9,2 
ENP,ioos.station.NOAA.NDBC:DKKF1:1,2015-09-07T00:00:00Z,25.1800,-80.4900,1.0,32.81,2 
ENP,ioos.station.NOAA.NDBC:DKKF1:1,2015-09-07T01:00:00Z,25.1800,-80.4900,1.0,32.7,11111222 
ENP,ioos.station.NOAA.NDBC:DKKF1:1,2015-09-07T02:00:00Z,25.1800,-80.4900,1.0,32.59,2 
ENP,ioos.station.NOAA.NDBC:DKKF1:1,2015-09-07T03:00:00Z,25.1800,-80.4900,1.0,32.5,11111222 
ENP,ioos.station.NOAA.NDBC:DKKF1:1,2015-09-07T04:00:00Z,25.1800,-80.4900,1.0,32.36,2 
ENP,ioos.station.NOAA.NDBC:DKKF1:1,2015-09-07T05:00:00Z,25.1800,-80.4900,1.0,32.3,11111222 
ENP,ioos.station.NOAA.NDBC:DKKF1:1,2015-09-07T06:00:00Z,25.1800,-80.4900,1.0,32.12,2 
ENP,ioos.station.NOAA.NDBC:DKKF1:1,2015-09-07T07:00:00Z,25.1800,-80.4900,1.0,32.0,11111222 
ENP,ioos.station.NOAA.NDBC:DKKF1:1,2015-09-07T08:00:00Z,25.1800,-80.4900,1.0,31.9,2 
ENP,ioos.station.NOAA.NDBC:DKKF1:1,2015-09-07T09:00:00Z,25.1800,-80.4900,1.0,31.69,2 
ENP,ioos.station.NOAA.NDBC:DKKF1:1,2015-09-07T10:00:00Z,25.1800,-80.4900,1.0,31.56,2 
ENP,ioos.station.NOAA.NDBC:DKKF1:1,2015-09-07T11:00:00Z,25.1800,-80.4900,1.0,31.21,2 
ENP,ioos.station.NOAA.NDBC:DKKF1:1,2015-09-07T12:00:00Z,25.1800,-80.4900,1.0,31.14,2 
ENP,ioos.station.NOAA.NDBC:DKKF1:1,2015-09-07T13:00:00Z,25.1800,-80.4900,1.0,31.01,2 
ENP,ioos.station.NOAA.NDBC:DKKF1:1,2015-09-07T14:00:00Z,25.1800,-80.4900,1.0,31.07,2 
ENP,ioos.station.NOAA.NDBC:DKKF1:1,2015-09-07T15:00:00Z,25.1800,-80.4900,1.0,31.31,2 
ENP,ioos.station.NOAA.NDBC:DKKF1:1,2015-09-07T16:00:00Z,25.1800,-80.4900,1.0,31.56,2 
ENP,ioos.station.NOAA.NDBC:DKKF1:1,2015-09-07T17:00:00Z,25.1800,-80.4900,1.0,31.57,2 
ENP,ioos.station.NOAA.NDBC:DKKF1:1,2015-09-07T18:00:00Z,25.1800,-80.4900,1.0,31.81,2 
ENP,ioos.station.NOAA.NDBC:DKKF1:1,2015-09-07T19:00:00Z,25.1800,-80.4900,1.0,31.82,2 
ENP,ioos.station.NOAA.NDBC:DKKF1:1,2015-09-07T20:00:00Z,25.1800,-80.4900,1.0,31.93,2 
ENP,ioos.station.NOAA.NDBC:DKKF1:1,2015-09-07T22:00:00Z,25.1800,-80.4900,1.0,32.07,2 
ENP,ioos.station.NOAA.NDBC:DKKF1:1,2015-09-07T23:00:00Z,25.1800,-80.4900,1.0,32.13,2 
ENP,ioos.station.NOAA.NDBC:DKKF1:1,2015-09-08T01:00:00Z,25.1800,-80.4900,1.0,32.09,2 
ENP,ioos.station.NOAA.NDBC:DKKF1:1,2015-09-08T02:00:00Z,25.1800,-80.4900,1.0,32.01,2 
ENP,ioos.station.NOAA.NDBC:DKKF1:1,2015-09-08T03:00:00Z,25.1800,-80.4900,1.0,31.9,11111222 
ENP,ioos.station.NOAA.NDBC:DKKF1:1,2015-09-08T04:00:00Z,25.1800,-80.4900,1.0,31.69,2 
ENP,ioos.station.NOAA.NDBC:DKKF1:1,2015-09-08T06:00:00Z,25.1800,-80.4900,1.0,31.5,11111222 
ENP,ioos.station.NOAA.NDBC:DKKF1:1,2015-09-08T07:00:00Z,25.1800,-80.4900,1.0,31.42,2 
ENP,ioos.station.NOAA.NDBC:DKKF1:1,2015-09-08T08:00:00Z,25.1800,-80.4900,1.0,31.3,11111222 
ENP,ioos.station.NOAA.NDBC:DKKF1:1,2015-09-08T09:00:00Z,25.1800,-80.4900,1.0,31.19,2 
ENP,ioos.station.NOAA.NDBC:DKKF1:1,2015-09-08T10:00:00Z,25.1800,-80.4900,1.0,31.13,2 
ENP,ioos.station.NOAA.NDBC:DKKF1:1,2015-09-08T11:00:00Z,25.1800,-80.4900,1.0,30.98,2 
ENP,ioos.station.NOAA.NDBC:DKKF1:1,2015-09-08T12:00:00Z,25.1800,-80.4900,1.0,30.8,11111222 
ENP,ioos.station.NOAA.NDBC:DKKF1:1,2015-09-08T13:00:00Z,25.1800,-80.4900,1.0,30.87,2 
ENP,ioos.station.NOAA.NDBC:DKKF1:1,2015-09-08T14:00:00Z,25.1800,-80.4900,1.0,30.86,2 
ENP,ioos.station.NOAA.NDBC:DKKF1:1,2015-09-08T15:00:00Z,25.1800,-80.4900,1.0,30.95,2 
ENP,ioos.station.NOAA.NDBC:DKKF1:1,2015-09-08T16:00:00Z,25.1800,-80.4900,1.0,31.11,2 
ENP,ioos.station.NOAA.NDBC:DKKF1:1,2015-09-08T17:00:00Z,25.1800,-80.4900,1.0,31.31,2 
ENP,ioos.station.NOAA.NDBC:DKKF1:1,2015-09-08T18:00:00Z,25.1800,-80.4900,1.0,31.63,2 
ENP,ioos.station.NOAA.NDBC:DKKF1:1,2015-09-08T19:00:00Z,25.1800,-80.4900,1.0,31.93,2 
ENP,ioos.station.NOAA.NDBC:DKKF1:1,2015-09-08T20:00:00Z,25.1800,-80.4900,1.0,32.26,2 
ENP,ioos.station.NOAA.NDBC:DKKF1:1,2015-09-08T22:00:00Z,25.1800,-80.4900,1.0,32.57,2 
ENP,ioos.station.NOAA.NDBC:DKKF1:1,2015-09-08T23:00:00Z,25.1800,-80.4900,1.0,32.5,11111222 
ENP,ioos.station.NOAA.NDBC:DKKF1:1,2015-09-09T00:00:00Z,25.1800,-80.4900,1.0,32.42,2 
ENP,ioos.station.NOAA.NDBC:DKKF1:1,2015-09-09T01:00:00Z,25.1800,-80.4900,1.0,32.31,2 
ENP,ioos.station.NOAA.NDBC:DKKF1:1,2015-09-09T02:00:00Z,25.1800,-80.4900,1.0,32.2,2 
ENP,ioos.station.NOAA.NDBC:DKKF1:1,2015-09-09T03:00:00Z,25.1800,-80.4900,1.0,32.1,2 
ENP,ioos.station.NOAA.NDBC:DKKF1:1,2015-09-09T04:00:00Z,25.1800,-80.4900,1.0,32.04,2 
ENP,ioos.station.NOAA.NDBC:DKKF1:1,2015-09-09T06:00:00Z,25.1800,-80.4900,1.0,32.0,11111222 
ENP,ioos.station.NOAA.NDBC:DKKF1:1,2015-09-09T07:00:00Z,25.1800,-80.4900,1.0,31.81,2 
ENP,ioos.station.NOAA.NDBC:DKKF1:1,2015-09-09T08:00:00Z,25.1800,-80.4900,1.0,31.57,2 
ENP,ioos.station.NOAA.NDBC:DKKF1:1,2015-09-09T09:00:00Z,25.1800,-80.4900,1.0,31.51,2 
ENP,ioos.station.NOAA.NDBC:DKKF1:1,2015-09-09T11:00:00Z,25.1800,-80.4900,1.0,31.39,2 
ENP,ioos.station.NOAA.NDBC:DKKF1:1,2015-09-09T12:00:00Z,25.1800,-80.4900,1.0,31.22,2 
ENP,ioos.station.NOAA.NDBC:DKKF1:1,2015-09-09T13:00:00Z,25.1800,-80.4900,1.0,31.2,11111222 
ENP,ioos.station.NOAA.NDBC:DKKF1:1,2015-09-09T14:00:00Z,25.1800,-80.4900,1.0,31.23,2 
ENP,ioos.station.NOAA.NDBC:DKKF1:1,2015-09-09T15:00:00Z,25.1800,-80.4900,1.0,31.21,2 
ENP,ioos.station.NOAA.NDBC:DKKF1:1,2015-09-09T16:00:00Z,25.1800,-80.4900,1.0,31.38,2 
ENP,ioos.station.NOAA.NDBC:DKKF1:1,2015-09-09T17:00:00Z,25.1800,-80.4900,1.0,31.69,2 
ENP,ioos.station.NOAA.NDBC:DKKF1:1,2015-09-09T18:00:00Z,25.1800,-80.4900,1.0,31.94,2 
ENP,ioos.station.NOAA.NDBC:DKKF1:1,2015-09-09T19:00:00Z,25.1800,-80.4900,1.0,32.17,2 
ENP,ioos.station.NOAA.NDBC:DKKF1:1,2015-09-09T20:00:00Z,25.1800,-80.4900,1.0,32.36,2 
ENP,ioos.station.NOAA.NDBC:DKKF1:1,2015-09-09T22:00:00Z,25.1800,-80.4900,1.0,32.32,2 
ENP,ioos.station.NOAA.NDBC:DKKF1:1,2015-09-09T23:00:00Z,25.1800,-80.4900,1.0,32.3,2 
ENP,ioos.station.NOAA.NDBC:DKKF1:1,2015-09-10T00:00:00Z,25.1800,-80.4900,1.0,32.21,2 
ENP,ioos.station.NOAA.NDBC:DKKF1:1,2015-09-10T01:00:00Z,25.1800,-80.4900,1.0,32.1,11111222 
ENP,ioos.station.NOAA.NDBC:DKKF1:1,2015-09-10T02:00:00Z,25.1800,-80.4900,1.0,31.94,2 
ENP,ioos.station.NOAA.NDBC:DKKF1:1,2015-09-10T03:00:00Z,25.1800,-80.4900,1.0,31.8,11111222 
ENP,ioos.station.NOAA.NDBC:DKKF1:1,2015-09-10T04:00:00Z,25.1800,-80.4900,1.0,31.74,2 
ENP,ioos.station.NOAA.NDBC:DKKF1:1,2015-09-10T06:00:00Z,25.1800,-80.4900,1.0,31.6,2 
ENP,ioos.station.NOAA.NDBC:DKKF1:1,2015-09-10T07:00:00Z,25.1800,-80.4900,1.0,31.47,2 
ENP,ioos.station.NOAA.NDBC:DKKF1:1,2015-09-10T08:00:00Z,25.1800,-80.4900,1.0,31.36,2 
ENP,ioos.station.NOAA.NDBC:DKKF1:1,2015-09-10T10:00:00Z,25.1800,-80.4900,1.0,31.25,2 
ENP,ioos.station.NOAA.NDBC:DKKF1:1,2015-09-10T11:00:00Z,25.1800,-80.4900,1.0,31.19,2 
ENP,ioos.station.NOAA.NDBC:DKKF1:1,2015-09-10T12:00:00Z,25.1800,-80.4900,1.0,31.15,2 
ENP,ioos.station.NOAA.NDBC:DKKF1:1,2015-09-10T13:00:00Z,25.1800,-80.4900,1.0,31.1,11111222 
ENP,ioos.station.NOAA.NDBC:DKKF1:1,2015-09-10T14:00:00Z,25.1800,-80.4900,1.0,31.16,2 
ENP,ioos.station.NOAA.NDBC:DKKF1:1,2015-09-10T15:00:00Z,25.1800,-80.4900,1.0,31.28,2 
ENP,ioos.station.NOAA.NDBC:DKKF1:1,2015-09-10T16:00:00Z,25.1800,-80.4900,1.0,31.43,2 
ENP,ioos.station.NOAA.NDBC:DKKF1:1,2015-09-10T17:00:00Z,25.1800,-80.4900,1.0,31.6,11111222 
ENP,ioos.station.NOAA.NDBC:DKKF1:1,2015-09-10T18:00:00Z,25.1800,-80.4900,1.0,31.79,2 
ENP,ioos.station.NOAA.NDBC:DKKF1:1,2015-09-10T19:00:00Z,25.1800,-80.4900,1.0,31.9,11111222 
ENP,ioos.station.NOAA.NDBC:DKKF1:1,2015-09-10T20:00:00Z,25.1800,-80.4900,1.0,31.9,2 
ENP,ioos.station.NOAA.NDBC:DKKF1:1,2015-09-10T21:00:00Z,25.1800,-80.4900,1.0,32.03,2 
ENP,ioos.station.NOAA.NDBC:DKKF1:1,2015-09-10T22:00:00Z,25.1800,-80.4900,1.0,32.1,11111222 
ENP,ioos.station.NOAA.NDBC:DKKF1:1,2015-09-10T23:00:00Z,25.1800,-80.4900,1.0,31.95,2 
ENP,ioos.station.NOAA.NDBC:DKKF1:1,2015-09-11T00:00:00Z,25.1800,-80.4900,1.0,31.87,2 
ENP,ioos.station.NOAA.NDBC:DKKF1:1,2015-09-11T02:00:00Z,25.1800,-80.4900,1.0,31.72,2 
ENP,ioos.station.NOAA.NDBC:DKKF1:1,2015-09-11T03:00:00Z,25.1800,-80.4900,1.0,31.6,11111222 
ENP,ioos.station.NOAA.NDBC:DKKF1:1,2015-09-11T04:00:00Z,25.1800,-80.4900,1.0,31.51,2 
ENP,ioos.station.NOAA.NDBC:DKKF1:1,2015-09-11T06:00:00Z,25.1800,-80.4900,1.0,31.45,2 
ENP,ioos.station.NOAA.NDBC:DKKF1:1,2015-09-11T07:00:00Z,25.1800,-80.4900,1.0,31.39,2 
ENP,ioos.station.NOAA.NDBC:DKKF1:1,2015-09-11T08:00:00Z,25.1800,-80.4900,1.0,31.4,11111222 
ENP,ioos.station.NOAA.NDBC:DKKF1:1,2015-09-11T09:00:00Z,25.1800,-80.4900,1.0,31.25,2 
ENP,ioos.station.NOAA.NDBC:DKKF1:1,2015-09-11T10:00:00Z,25.1800,-80.4900,1.0,31.1,11111222 
ENP,ioos.station.NOAA.NDBC:DKKF1:1,2015-09-11T11:00:00Z,25.1800,-80.4900,1.0,31.0,2 
ENP,ioos.station.NOAA.NDBC:DKKF1:1,2015-09-11T12:00:00Z,25.1800,-80.4900,1.0,30.85,2 
ENP,ioos.station.NOAA.NDBC:DKKF1:1,2015-09-11T13:00:00Z,25.1800,-80.4900,1.0,30.8,11111222 
ENP,ioos.station.NOAA.NDBC:DKKF1:1,2015-09-11T14:00:00Z,25.1800,-80.4900,1.0,30.75,2 
ENP,ioos.station.NOAA.NDBC:DKKF1:1,2015-09-11T15:00:00Z,25.1800,-80.4900,1.0,30.79,2 
ENP,ioos.station.NOAA.NDBC:DKKF1:1,2015-09-11T16:00:00Z,25.1800,-80.4900,1.0,30.92,2 
ENP,ioos.station.NOAA.NDBC:DKKF1:1,2015-09-11T17:00:00Z,25.1800,-80.4900,1.0,30.99,2 
ENP,ioos.station.NOAA.NDBC:DKKF1:1,2015-09-11T18:00:00Z,25.1800,-80.4900,1.0,31.3,11111222 
ENP,ioos.station.NOAA.NDBC:DKKF1:1,2015-09-11T19:00:00Z,25.1800,-80.4900,1.0,31.72,2 
ENP,ioos.station.NOAA.NDBC:DKKF1:1,2015-09-11T20:00:00Z,25.1800,-80.4900,1.0,32.03,2 
ENP,ioos.station.NOAA.NDBC:DKKF1:1,2015-09-11T21:00:00Z,25.1800,-80.4900,1.0,32.26,2 
ENP,ioos.station.NOAA.NDBC:DKKF1:1,2015-09-11T22:00:00Z,25.1800,-80.4900,1.0,32.46,2 
ENP,ioos.station.NOAA.NDBC:DKKF1:1,2015-09-12T00:00:00Z,25.1800,-80.4900,1.0,32.24,2 
ENP,ioos.station.NOAA.NDBC:DKKF1:1,2015-09-12T02:00:00Z,25.1800,-80.4900,1.0,32.06,2 
ENP,ioos.station.NOAA.NDBC:DKKF1:1,2015-09-12T04:00:00Z,25.1800,-80.4900,1.0,31.79,2 
ENP,ioos.station.NOAA.NDBC:DKKF1:1,2015-09-12T06:00:00Z,25.1800,-80.4900,1.0,31.6,2 
ENP,ioos.station.NOAA.NDBC:DKKF1:1,2015-09-12T07:00:00Z,25.1800,-80.4900,1.0,31.6,11111222 
ENP,ioos.station.NOAA.NDBC:DKKF1:1,2015-09-12T08:00:00Z,25.1800,-80.4900,1.0,31.41,2 
ENP,ioos.station.NOAA.NDBC:DKKF1:1,2015-09-12T09:00:00Z,25.1800,-80.4900,1.0,31.3,2 
ENP,ioos.station.NOAA.NDBC:DKKF1:1,2015-09-12T10:00:00Z,25.1800,-80.4900,1.0,31.15,2 
ENP,ioos.station.NOAA.NDBC:DKKF1:1,2015-09-12T11:00:00Z,25.1800,-80.4900,1.0,31.05,2 
ENP,ioos.station.NOAA.NDBC:DKKF1:1,2015-09-12T12:00:00Z,25.1800,-80.4900,1.0,30.94,2 
ENP,ioos.station.NOAA.NDBC:DKKF1:1,2015-09-12T13:00:00Z,25.1800,-80.4900,1.0,31.0,11111222 
ENP,ioos.station.NOAA.NDBC:DKKF1:1,2015-09-12T14:00:00Z,25.1800,-80.4900,1.0,30.89,2 
ENP,ioos.station.NOAA.NDBC:DKKF1:1,2015-09-12T15:00:00Z,25.1800,-80.4900,1.0,31.0,11111222 
ENP,ioos.station.NOAA.NDBC:DKKF1:1,2015-09-12T16:00:00Z,25.1800,-80.4900,1.0,31.27,2 
ENP,ioos.station.NOAA.NDBC:DKKF1:1,2015-09-12T17:00:00Z,25.1800,-80.4900,1.0,31.62,2 
ENP,ioos.station.NOAA.NDBC:DKKF1:1,2015-09-12T18:00:00Z,25.1800,-80.4900,1.0,31.9,2 
ENP,ioos.station.NOAA.NDBC:DKKF1:1,2015-09-12T19:00:00Z,25.1800,-80.4900,1.0,32.02,2 
ENP,ioos.station.NOAA.NDBC:DKKF1:1,2015-09-12T20:00:00Z,25.1800,-80.4900,1.0,32.3,11111222 
ENP,ioos.station.NOAA.NDBC:DKKF1:1,2015-09-12T21:00:00Z,25.1800,-80.4900,1.0,32.29,2 
ENP,ioos.station.NOAA.NDBC:DKKF1:1,2015-09-12T23:00:00Z,25.1800,-80.4900,1.0,32.16,2 
ENP,ioos.station.NOAA.NDBC:DKKF1:1,2015-09-13T00:00:00Z,25.1800,-80.4900,1.0,32.0,2 
ENP,ioos.station.NOAA.NDBC:DKKF1:1,2015-09-13T01:00:00Z,25.1800,-80.4900,1.0,31.9,2 
ENP,ioos.station.NOAA.NDBC:DKKF1:1,2015-09-13T02:00:00Z,25.1800,-80.4900,1.0,31.8,2 
ENP,ioos.station.NOAA.NDBC:DKKF1:1,2015-09-13T04:00:00Z,25.1800,-80.4900,1.0,31.6,2 
ENP,ioos.station.NOAA.NDBC:DKKF1:1,2015-09-13T05:00:00Z,25.1800,-80.4900,1.0,31.5,11111222 
ENP,ioos.station.NOAA.NDBC:DKKF1:1,2015-09-13T06:00:00Z,25.1800,-80.4900,1.0,31.5,11111222 
ENP,ioos.station.NOAA.NDBC:DKKF1:1,2015-09-13T07:00:00Z,25.1800,-80.4900,1.0,31.33,2 
ENP,ioos.station.NOAA.NDBC:DKKF1:1,2015-09-13T09:00:00Z,25.1800,-80.4900,1.0,31.03,2 
ENP,ioos.station.NOAA.NDBC:DKKF1:1,2015-09-13T10:00:00Z,25.1800,-80.4900,1.0,30.96,2 
ENP,ioos.station.NOAA.NDBC:DKKF1:1,2015-09-13T11:00:00Z,25.1800,-80.4900,1.0,30.8,11111222 
ENP,ioos.station.NOAA.NDBC:DKKF1:1,2015-09-13T12:00:00Z,25.1800,-80.4900,1.0,30.77,2 
ENP,ioos.station.NOAA.NDBC:DKKF1:1,2015-09-13T13:00:00Z,25.1800,-80.4900,1.0,30.7,11111222 
ENP,ioos.station.NOAA.NDBC:DKKF1:1,2015-09-13T14:00:00Z,25.1800,-80.4900,1.0,30.73,2 
ENP,ioos.station.NOAA.NDBC:DKKF1:1,2015-09-13T15:00:00Z,25.1800,-80.4900,1.0,30.87,2 
ENP,ioos.station.NOAA.NDBC:DKKF1:1,2015-09-13T16:00:00Z,25.1800,-80.4900,1.0,31.19,2 
ENP,ioos.station.NOAA.NDBC:DKKF1:1,2015-09-13T17:00:00Z,25.1800,-80.4900,1.0,31.55,2 
ENP,ioos.station.NOAA.NDBC:DKKF1:1,2015-09-13T18:00:00Z,25.1800,-80.4900,1.0,31.8,11111222 
ENP,ioos.station.NOAA.NDBC:DKKF1:1,2015-09-13T19:00:00Z,25.1800,-80.4900,1.0,31.98,2 